[[{"header":{"parameterUnit":"m.s-1","parameterCategory":1,"la1":30.2992,"la2":30.254,"lo1":-89.0895,"lo2":-89.0443,"dy":0.0025,"dx":0.0025,"nx":19,"ny":19,"refTime":"2026-04-19T21:00:00:Z","depth":0,"parameterNumber":2,"parameterNumberName":"U-component_of_WINDS"},"data":[0,0,0,-1.6448,-1.645,-1.6523,-1.6523,-1.6625,-1.6626,0,0,0,0,0,0,0,0,0,0,0,-1.6433,-1.6434,-1.6448,-1.645,-1.6523,-1.6523,-1.6625,-1.6626,0,0,0,0,0,0,0,0,0,0,0,-1.6433,-1.6434,-1.6435,-1.6451,-1.6523,-1.6523,-1.6625,-1.6566,0,0,0,0,0,0,0,0,0,0,-1.6494,-1.6486,-1.6433,-1.6435,-1.6451,-1.6523,-1.6523,-1.6563,-1.657,-1.6596,0,-1.6621,0,-1.6625,-1.6633,-1.6634,0,0,0,-1.6446,-1.6481,-1.6495,-1.6435,-1.6452,-1.6523,-1.6489,-1.6567,-1.6574,-1.6605,-1.6623,-1.6626,-1.6627,-1.6634,-1.6635,-1.6801,-1.6802,0,0,-1.6442,-1.6449,-1.649,-1.65,-1.649,-1.6487,-1.6491,-1.6571,-1.6591,-1.6623,-1.6629,-1.6629,-1.6635,-1.6636,-1.68,-1.6802,0,0,0,-1.6433,-1.6447,-1.6459,-1.6496,-1.6509,-1.6489,-1.6494,-1.6588,-1.6591,-1.663,-1.663,-1.6635,-1.6637,-1.6799,-1.6801,-1.6859,0,0,0,-1.643,-1.6442,-1.6457,-1.6463,-1.6507,-1.6549,-1.6509,-1.6585,-1.6594,-1.6629,-1.6636,-1.6638,-1.6798,-1.68,-1.6855,-1.6885,0,0,0,-1.6426,-1.6441,-1.6454,-1.6463,-1.6495,-1.6548,-1.6555,-1.6587,-1.6595,-1.6634,-1.6638,-1.6798,-1.68,-1.6851,-1.6879,-1.6932,0,0,0,-1.6424,-1.6505,-1.6455,-1.6545,-1.6494,-1.6583,-1.6555,-1.6621,-1.6661,-1.6636,-1.6798,-1.6801,-1.685,-1.6876,-1.6928,-1.6978,-1.6999,0,0,-1.653,-1.6518,-1.657,-1.6528,-1.6628,-1.6571,-1.6679,-1.6708,-1.6704,-1.6769,-1.6773,-1.6856,-1.6879,-1.6931,-1.7114,-1.7131,0,0,0,-1.6606,-1.6644,-1.6669,-1.6708,-1.6732,-1.6755,-1.6767,-1.6777,-1.6831,-1.674,-1.6888,-1.6902,-1.6932,-1.6955,-1.697,-1.6995,-1.6812,-1.6811,-1.6811,-1.677,-1.676,-1.6846,-1.6844,-1.6882,-1.6893,-1.6922,-1.6938,-1.6917,-1.6952,-1.6972,-1.7085,-1.7112,-1.7123,-1.715,-1.6997,-1.6997,-1.6997,-1.6997,-1.6925,-1.6978,-1.6947,-1.7019,-1.7008,-1.7068,-1.708,-1.7063,-1.7117,-1.7069,-1.7095,-1.7045,-1.7142,-1.7165,-1.7002,-1.7001,-1.7,-1.7,-1.7,-1.7032,-1.7056,-1.7066,-1.7121,-1.7163,-1.7158,-1.7211,-1.7199,-1.7187,-1.7213,-1.7232,-1.7231,-1.7229,-1.7222,-1.7223,-1.7223,-1.7224,-1.7224,-1.7224,-1.7139,-1.715,-1.7197,-1.7228,-1.725,-1.7278,-1.7288,-1.7309,-1.733,-1.7316,-1.7317,-1.7292,-1.7153,-1.7119,-1.723,-1.7229,-1.7228,-1.7228,-1.7227,-1.7303,-1.7264,-1.7336,-1.7359,-1.7393,-1.7436,-1.7418,-1.7463,-1.7478,-1.7505,-1.7474,-1.7373,-1.7359,-1.7348,-1.732,-1.7476,-1.7476,-1.7476,-1.7476,-1.7394,-1.7385,-1.7456,-1.7492,-1.7527,-1.7518,-1.7598,-1.7605,-1.7607,-1.7616,-1.7591,-1.7552,-1.754,-1.7533,-1.7518,-1.7491,-1.7688,-1.7688,-1.7688,-1.7494,-1.7488,-1.756,-1.7561,-1.7586,-1.7608,-1.7683,-1.7726,-1.7719,-1.7696,-1.7622,-1.7613,-1.755,-1.753,-1.7508,-1.7484,-1.7435,0,0]},{"header":{"parameterUnit":"m.s-1","parameterCategory":1,"la1":30.2992,"la2":30.254,"lo1":-89.0895,"lo2":-89.0443,"dy":0.0025,"dx":0.0025,"nx":19,"ny":19,"refTime":"2026-04-19T21:00:00:Z","depth":0,"parameterNumber":3,"parameterNumberName":"V-component_of_WINDS"},"data":[0,0,0,-6.6097,-6.6101,-6.6275,-6.6276,-6.6507,-6.6509,0,0,0,0,0,0,0,0,0,0,0,-6.6054,-6.6056,-6.6097,-6.6102,-6.6275,-6.6276,-6.6506,-6.6509,0,0,0,0,0,0,0,0,0,0,0,-6.6054,-6.6056,-6.6058,-6.6102,-6.6275,-6.6276,-6.6506,-6.637,0,0,0,0,0,0,0,0,0,0,-6.62,-6.617,-6.6055,-6.6058,-6.6103,-6.6275,-6.6276,-6.6364,-6.6379,-6.6432,0,-6.6486,0,-6.6501,-6.6525,-6.6526,0,0,0,-6.6094,-6.6157,-6.6197,-6.6059,-6.6105,-6.6275,-6.6195,-6.6372,-6.6389,-6.6453,-6.6489,-6.6497,-6.6505,-6.6527,-6.6528,-6.687,-6.6872,0,0,-6.6084,-6.609,-6.6185,-6.6208,-6.6187,-6.6189,-6.62,-6.6382,-6.6421,-6.649,-6.6502,-6.6509,-6.6528,-6.653,-6.6869,-6.6871,0,0,0,-6.6062,-6.6083,-6.6118,-6.6199,-6.623,-6.6194,-6.6207,-6.6413,-6.6424,-6.6505,-6.6512,-6.653,-6.6533,-6.6866,-6.6869,-6.6973,0,0,0,-6.6056,-6.607,-6.6114,-6.6119,-6.6227,-6.6325,-6.6234,-6.6411,-6.6432,-6.6511,-6.653,-6.6535,-6.6864,-6.6868,-6.6965,-6.702,0,0,0,-6.604,-6.6068,-6.6097,-6.6119,-6.6195,-6.6322,-6.6343,-6.6415,-6.6436,-6.6526,-6.6536,-6.6863,-6.6867,-6.6959,-6.7009,-6.7111,0,0,0,-6.6024,-6.6185,-6.6099,-6.6281,-6.6193,-6.6386,-6.6342,-6.6484,-6.6573,-6.6531,-6.6865,-6.6869,-6.6956,-6.7002,-6.7104,-6.7198,-6.7238,0,0,-6.623,-6.621,-6.6316,-6.6244,-6.6454,-6.6358,-6.6582,-6.6657,-6.6658,-6.6798,-6.6807,-6.6968,-6.7008,-6.711,-6.7462,-6.7494,0,0,0,-6.6383,-6.646,-6.6514,-6.6602,-6.6665,-6.6722,-6.6763,-6.6791,-6.691,-6.6733,-6.7032,-6.7056,-6.7116,-6.716,-6.7187,-6.7237,-6.689,-6.689,-6.6889,-6.6681,-6.6678,-6.6853,-6.687,-6.6955,-6.6996,-6.7063,-6.7106,-6.7075,-6.7146,-6.7187,-6.7402,-6.7455,-6.7475,-6.7527,-6.7237,-6.7238,-6.7238,-6.7238,-6.6982,-6.7089,-6.7047,-6.7202,-6.7195,-6.7324,-6.7368,-6.7342,-6.7459,-6.7371,-6.7423,-6.7327,-6.7511,-6.7556,-6.7246,-6.7245,-6.7244,-6.7243,-6.7242,-6.7176,-6.7227,-6.726,-6.7385,-6.7481,-6.7491,-6.7606,-6.7595,-6.7585,-6.7637,-6.7678,-6.7677,-6.7672,-6.7658,-6.7658,-6.7659,-6.766,-6.766,-6.7661,-6.7364,-6.7398,-6.7498,-6.7579,-6.7633,-6.7703,-6.7745,-6.7796,-6.785,-6.7833,-6.7833,-6.7794,-6.753,-6.7464,-6.7672,-6.767,-6.7669,-6.7668,-6.7667,-6.7669,-6.7598,-6.7753,-6.7808,-6.7901,-6.7996,-6.7981,-6.8087,-6.8128,-6.8185,-6.8135,-6.7942,-6.792,-6.7898,-6.7842,-6.8137,-6.8137,-6.8137,-6.8137,-6.7832,-6.782,-6.7976,-6.8063,-6.8148,-6.815,-6.8321,-6.8355,-6.8377,-6.8402,-6.8357,-6.8283,-6.8262,-6.8252,-6.8222,-6.817,-6.8542,-6.8542,-6.8542,-6.8018,-6.8015,-6.8164,-6.8189,-6.8261,-6.8322,-6.8482,-6.8581,-6.8591,-6.8559,-6.842,-6.8403,-6.8283,-6.8245,-6.8208,-6.8162,-6.8067,0,0]}]]